Regional Weather Roundup
Issued by NWS Charleston, WV

Home | Current Version | Previous Version | Text Only | Print | Product List | Glossary Off
Versions: 1 2 3 4 5 6 7 8 9 10 11 12 13 14 15 16 17 18 19 20 21 22 23 24 25 26 27 28 29 30 31 32 33 34 35 36 37 38 39 40 41 42 43 44 45 46 47 48 49 50

000
ASUS41 KRLX 091510
RWRRLX
CRWRWRRLX ALL
West Virginia Regional Weather Roundup
National Weather Service Charleston WV
Issued by National Weather Service Pittsburgh PA
1000 AM EST FRI DEC 09 2016

Note: "fair" indicates few or no clouds below 12,000 feet with no
significant weather and/or obstructions to visibility.

WVZ003-091600-
Northern Panhandle of West Virginia

CITY           SKY/WX    TMP DP  RH WIND       PRES   REMARKS
WHEELING       CLOUDY    22  16  78 W10G20    30.39R WCI  11
$$

WVZ009-091600-
Northwest West Virginia

CITY           SKY/WX    TMP DP  RH WIND       PRES   REMARKS
PARKERSBURG    CLOUDY    24  14  65 W10       30.51R WCI  14
$$

WVZ006-091600-
Western West Virginia

CITY           SKY/WX    TMP DP  RH WIND       PRES   REMARKS
HUNTINGTON     LGT SNOW  24  17  74 NW3       30.53R
$$

WVZ015-091600-
West Central West Virginia

CITY           SKY/WX    TMP DP  RH WIND       PRES   REMARKS
CHARLESTON     LGT SNOW  24  15  68 NW10G17   30.50R WCI  14
$$

WVZ031-091600-
North Central West Virginia

CITY           SKY/WX    TMP DP  RH WIND       PRES   REMARKS
CLARKSBURG     LGT SNOW  23  17  78 W13       30.42R WCI  11
MORGANTOWN     FLURRIES  23  16  74 W7        30.40R WCI  15
$$

WVZ035-042-091600-
South Central West Virginia

CITY           SKY/WX    TMP DP  RH WIND       PRES   REMARKS
BECKLEY        CLOUDY    19  11  70 NW10      30.37R WCI   7
BLUEFIELD      FLURRIES  16   9  74 NW13G22   30.36R WCI   2
$$

WVZ045-091600-
Greenbrier Valley of West Virginia

CITY           SKY/WX    TMP DP  RH WIND       PRES   REMARKS
LEWISBURG      CLOUDY    20  10  64 W7        30.35R WCI  12
$$

WVZ047-091600-
Northern Mountains of West Virginia

CITY           SKY/WX    TMP DP  RH WIND       PRES   REMARKS
ELKINS         LGT SNOW  21  13  71 SW7       30.36S WCI  12
$$

WVZ052-091600-
Eastern Panhandle of West Virginia

CITY           SKY/WX    TMP DP  RH WIND       PRES   REMARKS
MARTINSBURG    MOSUNNY   31  16  54 W13G23    30.33R WCI  21
PETERSBURG     MOSUNNY   30  14  51 W9        30.36R WCI  22
$$



USA.gov is the U.S. government's official web portal to all federal, state and local government web resources and services.